Regional Weather Roundup
Issued by NWS Jackson, KY

Home | Current Version | Previous Version | Text Only | Print | Product List | Glossary On
Versions: 1 2 3 4 5 6 7 8 9 10 11 12 13 14 15 16 17 18 19 20 21 22 23 24 25 26 27
000
ASUS43 KJKL 210110
RWRJKL

EAST KENTUCKY HOURLY WEATHER ROUNDUP
NATIONAL WEATHER SERVICE JACKSON KY
800 PM EST MON FEB 20 2017

NOTE: "FAIR" INDICATES FEW OR NO CLOUDS BELOW 12,000 FEET WITH
NO SIGNIFICANT WEATHER AND/OR OBSTRUCTIONS TO VISIBILITY.

* THESE REPORTS ARE NOT UNDER NWS QUALITY CONTROL AND MAY NOT
  REPORT WEATHER SUCH AS PRECIPITATION AND FOG.

KYZ079-080-083-085-087-088-110-112-115-119-120-210200
...EASTERN KENTUCKY...

CITY           SKY/WX    TMP DP  RH WIND       PRES   REMARKS
JACKSON        CLOUDY    63  35  35 VRB3      30.12F
LONDON         PTCLDY    57  38  48 CALM      30.11S
SOMERSET*      CLOUDY    59  41  51 CALM      30.11S
MONTICELLO*    PTCLDY    54  43  66 N8        30.12R
WILLIAMSBURG*  PTCLDY    63  41  45 SE6       30.11S
MIDDLESBORO*   CLOUDY    54  43  66 CALM      30.13S
HARLAN APT*    PTCLDY    59  36  41 CALM      30.13S
PIKE CO APT*     N/A     61  35  37 NE6       30.12F
BIG SANDY APT* CLOUDY    59  37  44 NE3       30.13S
MOREHEAD APT*  CLOUDY    59  41  51 E7        30.13F
ASHLAND*       CLOUDY    50  43  76 CALM      30.13S
$$

KYZ035-036-041-042-044-050-067-078-099-210200
...CENTRAL KENTUCKY...

CITY           SKY/WX    TMP DP  RH WIND       PRES   REMARKS
MT STERLING*   CLOUDY    61  45  55 E8        30.13S
FLEMING/MASON* PTCLDY    53  41  63 E7        30.13F
DANVILLE*      CLOUDY    55  43  62 CALM      30.11S
LEXINGTON      CLOUDY    61  43  51 E3        30.10S
FRANKFORT      MOCLDY    60  46  59 E5        30.08S
LOUISVILLE     MOCLDY    64  42  44 SE8       30.05F
LEBANON*         N/A     64  41  42 SE7       30.09S HAZE
GLASGOW*       PTCLDY    58  46  63 CALM      30.08R
BOWLING GREEN  PTCLDY    61  44  53 CALM      30.06S
$$

KYZ091>093-OHZ055-061-077-WVZ005-015-034-035-042-210200
...SOUTHERN OHIO/WEST VIRGINIA...

CITY           SKY/WX    TMP DP  RH WIND       PRES   REMARKS
COVINGTON      CLOUDY    57  46  66 E9        30.09F
COLUMBUS       CLOUDY    53  41  63 E7        30.16R
DAYTON         CLOUDY    54  41  61 E10       30.13S
WILMINGTON     PTCLDY    52  39  61 SE6       30.13F
HUNTINGTON     CLOUDY    58  37  45 N3        30.14R
CHARLESTON     CLOUDY    54  40  59 CALM      30.14S
PINEVILLE*     CLOUDY    48  34  58 MISG      30.19F
BECKLEY        CLOUDY    56  24  29 SE6       30.17S
BLUEFIELD      CLOUDY    58  27  30 E8        30.19S
LOGAN CO APT*    N/A     59  37  44 NE7       30.13F
$$

VAZ002-007-008-TNZ017-027-036-066-071-210200
...SOUTHWEST VIRGINIA/EAST TENNESSEE...

CITY           SKY/WX    TMP DP  RH WIND       PRES   REMARKS
WISE*          PTCLDY    55  23  28 CALM      30.17S
JONESVILLE*      N/A     52  39  62 NE5       30.14F
ABINGDON*      CLEAR     56  38  51 CALM      30.15S
BRISTOL        PTCLDY    54  37  52 CALM      30.13S
MORRISTOWN*    CLEAR     55  45  67 CALM      30.12S
SEVIERVILLE*   CLEAR     54  43  66 CALM      30.12S
KNOXVILLE      CLOUDY    61  44  53 CALM      30.11S
LAFOLLETTE*    CLEAR     54  43  66 CALM      30.15S
OAK RIDGE      PTCLDY    57  46  66 CALM      30.13R
CROSSVILLE     CLOUDY    58  44  60 CALM      30.14R
NASHVILLE      CLOUDY    67  43  41 S3        30.07R
$$

...KEY TO REMARKS...
VSB - VISIBILITY IN MILES
WCI - WIND CHILL INDEX
HX  - HEAT INDEX

$$




USA.gov is the U.S. government's official web portal to all federal, state and local government web resources and services.